GW1702 Weather Reports


time (UTC)temp
C
wind
direction
speed
KPH
gust
KPH
rain 1hr
cm
rain 24hr
cm
rain mn
cm
humidity
%
barometer
mb
20260509075037 21 213 3.2 11.3 0.00 0.00 0.00 92 1010.5
20260509074043 21 214 4.8 14.5 0.00 0.00 0.00 91 1010.9
20260509073044 21 218 6.4 12.9 0.00 0.00 0.00 91 1011.1
20260509072044 21 221 4.8 9.7 0.00 0.00 0.00 92 1011.4
20260509071024 21 222 3.2 6.4 0.00 0.00 0.00 93 1011.7
20260509070025 21 250 0.0 4.8 0.00 0.00 0.00 93 1011.6
20260509065025 21 246 1.6 4.8 0.00 0.00 0.00 93 1011.6
20260509064045 21 230 3.2 6.4 0.00 0.00 0.00 92 1011.3
20260509063025 21 223 4.8 9.7 0.00 0.00 0.00 91 1011.2
20260509062025 21 218 4.8 6.4 0.00 0.00 0.00 91 1011.4
20260509061045 21 220 3.2 6.4 0.00 0.00 0.00 91 1011.3
20260509060024 21 230 1.6 3.2 0.00 0.00 0.00 90 1011.6
20260509055024 21 242 1.6 3.2 0.00 0.00 0.00 89 1012.1
20260509054044 21 240 1.6 3.2 0.00 0.00 0.00 88 1011.9
20260509053024 21 240 1.6 3.2 0.00 0.00 0.00 87 1012.3
20260509052024 21 297 1.6 3.2 0.00 0.00 0.00 87 1012.7
20260509051024 21 296 1.6 3.2 0.00 0.00 0.00 87 1011.6
20260509050025 22 232 1.6 4.8 0.00 0.00 0.00 86 1011.3
20260509045045 22 209 4.8 12.9 0.00 0.00 0.00 85 1010.9
20260509044025 22 204 6.4 11.3 0.00 0.00 0.00 84 1011.2
20260509043043 22 217 3.2 6.4 0.00 0.00 0.00 84 1011.2
20260509042024 22 233 1.6 9.7 0.00 0.00 0.00 83 1011.0
20260509041024 22 60 3.2 9.7 0.00 0.00 0.00 83 1011.3
20260509040024 22 188 3.2 6.4 0.00 0.00 0.00 83 1011.3
20260509035024 22 323 1.6 3.2 0.00 0.00 0.00 82 1011.9
20260509034025 22 318 1.6 3.2 0.00 0.00 0.00 82 1011.7
20260509033025 22 8 1.6 3.2 0.00 0.00 0.00 82 1011.4
20260509032023 22 314 0.0 1.6 0.00 0.00 0.00 82 1011.4
20260509031023 22 354 1.6 3.2 0.00 0.00 0.00 82 1011.2
20260509030025 22 247 1.6 6.4 0.00 0.00 0.00 83 1010.8
20260509025025 22 233 1.6 4.8 0.00 0.00 0.00 83 1010.8
20260509024025 22 241 1.6 4.8 0.00 0.00 0.00 82 1010.4
20260509023026 22 234 1.6 6.4 0.00 0.00 0.00 82 1010.3
20260509022044 22 214 3.2 9.7 0.00 0.00 0.00 82 1010.1
20260509021044 22 212 1.6 4.8 0.00 0.00 0.00 81 1010.1
20260509020104 22 225 1.6 4.8 0.00 0.00 0.00 81 1010.0
20260509015024 22 225 3.2 6.4 0.00 0.00 0.00 81 1009.9
20260509014045 22 208 4.8 11.3 0.00 0.00 0.00 80 1010.1
20260509013024 22 216 4.8 11.3 0.00 0.00 0.00 80 1010.1
20260509012025 22 222 3.2 9.7 0.00 0.00 0.00 80 1009.9
20260509011025 22 239 3.2 6.4 0.00 0.00 0.00 79 1009.6
20260509010025 22 218 3.2 6.4 0.00 0.00 0.00 79 1009.5
20260509005023 22 199 4.8 16.1 0.00 0.00 0.00 78 1009.4
20260509004023 22 204 3.2 9.7 0.00 0.00 0.00 78 1009.5
20260509003024 23 192 3.2 12.9 0.00 0.00 0.00 77 1009.3
20260509002024 23 212 4.8 14.5 0.00 0.00 0.00 77 1009.3
20260509001024 23 210 3.2 11.3 0.00 0.00 0.00 76 1009.4
20260509000024 23 211 8.0 11.3 0.00 0.00 0.00 76 1009.6
20260508234044 23 211 6.4 14.5 0.00 0.00 0.00 75 1009.8
20260508233024 23 213 4.8 12.9 0.00 0.00 0.00 74 1009.7
20260508232044 24 233 3.2 6.4 0.00 0.00 0.00 72 1009.8
20260508231025 25 200 4.8 12.9 0.00 0.00 0.00 70 1009.9
20260508230105 24 222 3.2 9.7 0.00 0.00 0.00 70 1009.8
20260508225025 23 235 4.8 12.9 0.00 0.00 0.00 71 1010.0
20260508224023 24 208 11.3 17.7 0.00 0.00 0.00 71 1009.9
20260508223023 24 219 8.0 22.5 0.00 0.00 0.00 71 1009.8
20260508222024 24 209 9.7 20.9 0.00 0.00 0.00 71 1009.8
20260508221024 24 213 6.4 14.5 0.00 0.00 0.00 71 1009.7
20260508220024 23 207 6.4 17.7 0.00 0.00 0.00 72 1009.8
20260508215024 24 210 8.0 14.5 0.00 0.00 0.00 70 1009.8
20260508214035 25 206 3.2 9.7 0.00 0.00 0.00 69 1009.9
20260508213025 25 213 4.8 11.3 0.00 0.00 0.00 69 1010.1
20260508212025 25 197 3.2 6.4 0.00 0.00 0.00 66 1009.9
20260508211045 25 225 3.2 9.7 0.00 0.00 0.00 67 1010.0
20260508210023 22 213 4.8 12.9 0.00 0.00 0.00 72 1010.7
20260508205024 22 212 6.4 11.3 0.00 0.00 0.00 73 1011.3
20260508204024 22 201 6.4 14.5 0.00 0.00 0.00 72 1011.5
20260508203024 23 198 11.3 20.9 0.00 0.00 0.00 71 1012.0
20260508202024 23 212 6.4 14.5 0.00 0.00 0.00 71 1011.9
20260508201024 23 200 6.4 16.1 0.00 0.00 0.00 70 1011.8
20260508200025 24 217 3.2 6.4 0.00 0.00 0.00 69 1011.9
20260508195025 24 207 6.4 16.1 0.00 0.00 0.00 67 1011.7
20260508194105 25 215 6.4 12.9 0.00 0.00 0.00 67 1011.9
20260508193024 24 205 6.4 12.9 0.00 0.00 0.00 68 1012.0
20260508192024 24 206 9.7 14.5 0.00 0.00 0.00 68 1012.2
20260508191024 25 207 6.4 17.7 0.00 0.00 0.00 67 1012.1
20260508190024 25 207 9.7 20.9 0.00 0.00 0.00 66 1012.1
20260508185024 26 223 3.2 11.3 0.00 0.00 0.00 64 1012.2
20260508184024 25 213 3.2 11.3 0.00 0.00 0.00 65 1012.3
20260508183045 25 198 4.8 14.5 0.00 0.00 0.00 65 1012.3
20260508182025 26 228 3.2 11.3 0.00 0.00 0.00 61 1012.6
20260508181025 24 225 3.2 9.7 0.00 0.00 0.00 66 1012.8
20260508180025 24 212 4.8 14.5 0.00 0.00 0.00 65 1013.1
20260508175023 24 223 4.8 14.5 0.00 0.00 0.00 65 1013.1
20260508174023 23 206 6.4 14.5 0.00 0.00 0.00 66 1013.3
20260508173044 23 204 6.4 16.1 0.00 0.00 0.00 65 1013.3
20260508172044 23 213 4.8 12.9 0.00 0.00 0.00 65 1013.5
20260508171024 23 163 4.8 12.9 0.00 0.00 0.00 64 1013.8
20260508170024 22 223 3.2 12.9 0.00 0.00 0.00 67 1014.2
20260508165024 22 211 8.0 14.5 0.00 0.00 0.00 67 1014.3
20260508164045 22 197 4.8 12.9 0.00 0.00 0.00 66 1014.4
20260508163045 22 204 6.4 14.5 0.00 0.00 0.00 66 1014.7
20260508162025 21 209 6.4 14.5 0.00 0.00 0.00 68 1015.0
20260508161045 21 172 4.8 12.9 0.00 0.00 0.00 68 1015.0
20260508160025 21 241 3.2 6.4 0.00 0.00 0.00 68 1015.1
20260508155023 20 209 3.2 9.7 0.00 0.00 0.00 70 1015.2
20260508154023 20 198 4.8 14.5 0.00 0.00 0.00 70 1015.5
20260508153023 20 220 3.2 11.3 0.00 0.00 0.00 70 1015.5
20260508152024 20 197 4.8 12.9 0.00 0.00 0.00 70 1015.6
20260508151024 19 213 4.8 12.9 0.00 0.00 0.00 71 1015.5
20260508150024 19 217 6.4 11.3 0.00 0.00 0.00 71 1015.6
20260508145024 19 220 4.8 11.3 0.00 0.00 0.00 71 1015.3
20260508144025 19 201 3.2 11.3 0.00 0.00 0.00 70 1015.4
20260508143025 19 206 6.4 16.1 0.00 0.00 0.00 71 1015.6
20260508142025 19 210 8.0 20.9 0.00 0.00 0.00 70 1015.8
20260508141023 20 235 3.2 11.3 0.00 0.00 0.00 70 1015.7
20260508140045 20 147 4.8 9.7 0.00 0.00 0.00 70 1015.7
20260508135046 19 119 3.2 9.7 0.00 0.00 0.00 71 1015.7
20260508134023 19 250 1.6 4.8 0.00 0.00 0.00 72 1015.7
20260508133024 18 229 1.6 6.4 0.00 0.00 0.00 74 1015.6
20260508132024 18 169 1.6 6.4 0.00 0.00 0.00 78 1015.7
20260508131024 17 249 1.6 3.2 0.00 0.00 0.00 78 1015.8
20260508130024 17 223 1.6 6.4 0.00 0.00 0.00 78 1015.8
20260508125024 17 302 1.6 4.8 0.00 0.00 0.00 80 1015.9
20260508124024 17 243 0.0 3.2 0.00 0.00 0.00 81 1015.9
20260508123025 17 245 1.6 4.8 0.00 0.00 0.00 81 1016.2
20260508122023 17 236 1.6 4.8 0.00 0.00 0.00 81 1015.9
20260508121023 17 237 1.6 4.8 0.00 0.00 0.00 82 1015.8
20260508120025 17 252 1.6 6.4 0.00 0.00 0.00 82 1016.0
20260508115045 17 238 1.6 4.8 0.00 0.00 0.00 82 1016.1
20260508114144 17 235 1.6 6.4 0.00 0.00 0.00 82 1016.0
20260508113024 17 232 1.6 4.8 0.00 0.00 0.00 82 1016.0
20260508112024 17 242 1.6 4.8 0.00 0.00 0.00 84 1015.6
20260508111024 16 175 3.2 4.8 0.00 0.00 0.00 85 1015.5
20260508110024 17 221 1.6 3.2 0.00 0.00 0.00 85 1016.4
20260508105024 17 282 1.6 4.8 0.00 0.00 0.00 84 1016.5
20260508104024 17 299 1.6 1.6 0.00 0.00 0.00 84 1015.7
20260508103025 16 253 1.6 3.2 0.00 0.00 0.00 84 1015.3
20260508102025 16 256 0.0 1.6 0.00 0.00 0.00 84 1015.1
20260508101025 17 237 1.6 4.8 0.00 0.00 0.00 83 1015.0
20260508100025 17 235 3.2 11.3 0.00 0.00 0.00 81 1015.1
20260508095024 17 224 3.2 6.4 0.00 0.00 0.00 80 1014.9
20260508094024 17 236 1.6 4.8 0.00 0.00 0.00 81 1015.2
20260508093044 17 242 0.0 3.2 0.00 0.00 0.00 82 1015.1
20260508092024 17 0.0 0.0 0.00 0.00 0.00 81 1015.3
20260508091024 17 296 0.0 1.6 0.00 0.00 0.00 81 1015.3
20260508090025 17 291 0.0 1.6 0.00 0.00 0.00 80 1015.2
20260508085025 17 291 0.0 1.6 0.00 0.00 0.00 79 1015.6
20260508084045 17 224 3.2 6.4 0.00 0.00 0.00 80 1015.3
20260508083025 17 77 1.6 6.4 0.00 0.00 0.00 81 1015.3
20260508082023 17 232 1.6 3.2 0.00 0.00 0.00 82 1015.9
20260508081024 17 0.0 0.0 0.00 0.00 0.00 82 1016.3
20260508080024 17 9 1.6 3.2 0.00 0.00 0.00 82 1016.4